Pecs, Hungary

6:07 PM CEST on July 24, 2017 (GMT +0200)
Pecs

Weather History for LHPP - January, 2013

Change the Weather History Date:

Friday, January 18, 2013

  Actual Average Record
Temperature  
Mean Temperature 28 °F -  
Max Temperature 31 °F 39 °F - ()
Min Temperature 24 °F 27 °F - ()
Degree Days  
Heating Degree Days 38    
Moisture  
Dew Point 27 °F    
Average Humidity 91    
Maximum Humidity 100    
Minimum Humidity 80    
Precipitation  
Precipitation 0.08 in 0.05 in - ()
Sea Level Pressure  
Sea Level Pressure 29.53 in    
Wind  
Wind Speed 13 mph ()    
Max Wind Speed 21 mph    
Max Gust Speed 31 mph    
Visibility 2.4 miles    
Events Snow    
T = Trace of Precipitation, MM = Missing Value Source: Averaged Metar Reports

Daily Weather History Graph

Daily Weather History Graph

Search for Another Location

Airport or City:

Trip Planner

Search our weather history database for the weather conditions in past years. The results will help you decide how hot, cold, wet, or windy it might be!

Date:

Astronomy

Jan. 18, 2013 Rise Set
Actual Time 7:23 AM CET 4:32 PM CET
Civil Twilight 6:49 AM CET 5:05 PM CET
Nautical Twilight 6:13 AM CET 5:42 PM CET
Astronomical Twilight 5:37 AM CET 6:18 PM CET
Moon 10:25 AM CET (1/18) No Moon Set
Length of Visible Light 10h 15m
Length of Day
9h 09m
Waxing Crescent, 45% of the Moon is Illuminated
Jan 18
Waxing Crescent
Jan 19
First Quarter
Jan 27
Full
Feb 3
Last Quarter
Feb 10
New

Hourly Weather History & Observations

Time (CET) Temp. Windchill Dew Point Humidity Pressure Visibility Wind Dir Wind Speed Gust Speed Precip Events Conditions
12:33 AM 33.8 °F 23.5 °F 32.0 °F 93% 29.62 in 1.9 mi NNE 16.1 mph - N/A Snow Light Snow
12:45 AM 33.8 °F 23.5 °F 32.0 °F 93% 29.56 in 1.9 mi NNE 16.1 mph - N/A Snow Light Snow
1:00 AM 33 °F - 32 °F 93% 29.61 in 2 mi NNE 15.7 mph - - Snow Light Snow
1:45 AM 32.0 °F 23.0 °F 32.0 °F 100% 29.56 in 1.9 mi North 11.5 mph - N/A Snow Light Snow
2:45 AM 32.0 °F 21.6 °F 30.2 °F 93% 29.56 in 1.9 mi NNE 15.0 mph - N/A Snow Light Snow
3:45 AM 32.0 °F 21.2 °F 30.2 °F 93% 29.53 in 1.9 mi NNE 16.1 mph - N/A Snow Light Snow
4:45 AM 32.0 °F 20.8 °F 30.2 °F 93% 29.50 in 1.9 mi NNE 17.3 mph - N/A Snow Light Snow
5:15 AM 32.0 °F 20.5 °F 30.2 °F 93% 29.50 in 1.9 mi NNE 18.4 mph - N/A Snow Light Snow
5:45 AM 32.0 °F 20.8 °F 30.2 °F 93% 29.50 in 1.9 mi NNE 17.3 mph - N/A Snow Light Snow
6:00 AM - - - N/A% - 1.9 mi NNE 17.3 mph 28.8 mph N/A   Unknown
6:15 AM 32.0 °F 21.2 °F 30.2 °F 93% 29.50 in 1.9 mi NNE 16.1 mph - N/A Snow Light Snow
6:45 AM 32.0 °F 21.6 °F 30.2 °F 93% 29.50 in 1.9 mi North 15.0 mph - N/A Snow Light Snow
7:00 AM 31 °F - 30 °F 95% 29.54 in 2 mi North 15.7 mph - - Snow Light Snow
7:15 AM 30.2 °F 17.8 °F 30.2 °F 100% 29.50 in 1.2 mi NNE 19.6 mph - N/A Snow Light Snow
7:19 AM - - - N/A% - - North - - N/A   Unknown
7:45 AM 30.2 °F 17.4 °F 28.4 °F 93% 29.50 in 0.9 mi North 20.7 mph - N/A Snow Light Snow
8:15 AM 30.2 °F 17.8 °F 28.4 °F 93% 29.50 in 0.9 mi North 19.6 mph - N/A Snow Light Snow
8:45 AM 30.2 °F 17.4 °F 28.4 °F 93% 29.50 in 0.9 mi North 20.7 mph - N/A Snow Light Snow
9:00 AM - - - N/A% - - North 19.6 mph 31.1 mph N/A   Overcast
9:15 AM 30.2 °F 17.8 °F 28.4 °F 93% 29.50 in 0.9 mi North 19.6 mph - N/A Snow Light Snow
9:45 AM 28.4 °F 15.4 °F 26.6 °F 93% 29.50 in 0.9 mi North 19.6 mph - N/A Snow Light Snow
10:15 AM 28.4 °F 16.6 °F 26.6 °F 93% 29.50 in 0.9 mi North 16.1 mph - N/A Snow Light Snow
10:45 AM 28.4 °F 16.6 °F 26.6 °F 93% 29.50 in 1.6 mi North 16.1 mph - N/A Snow Light Snow
11:15 AM 28.4 °F 19.7 °F 26.6 °F 93% 29.50 in 1.6 mi North 9.2 mph - N/A Snow Light Snow
11:45 AM 28.4 °F 20.4 °F 26.6 °F 93% 29.53 in 1.6 mi NNW 8.1 mph - N/A Snow Light Snow
12:00 PM - - - N/A% - - NNW 12.7 mph 24.2 mph N/A   Overcast
12:15 PM 28.4 °F 19.1 °F 26.6 °F 93% 29.50 in 1.6 mi NNW 10.4 mph - N/A Snow Light Snow
12:45 PM 28.4 °F 18.5 °F 26.6 °F 93% 29.50 in 1.6 mi NNW 11.5 mph - N/A Snow Light Snow
1:00 PM 29 °F - 27 °F 87% 29.55 in 2 mi NNW 11.2 mph - - Snow Light Snow
1:15 PM 28.4 °F 19.7 °F 26.6 °F 93% 29.50 in 1.2 mi NNW 9.2 mph - N/A Snow Light Snow
1:45 PM 28.4 °F 20.4 °F 26.6 °F 93% 29.50 in 1.2 mi NNW 8.1 mph - N/A Snow Light Snow
2:15 PM 28.4 °F 18.5 °F 26.6 °F 93% 29.50 in 1.7 mi NNW 11.5 mph - N/A Snow Light Snow
2:39 PM 28.4 °F 19.7 °F 24.8 °F 86% 29.56 in - NNW 9.2 mph - N/A Snow Light Snow
2:45 PM 26.6 °F 17.5 °F 24.8 °F 93% 29.53 in - NNW 9.2 mph - N/A Snow Light Snow
3:00 PM - - - N/A% - 3.1 mi NNW 12.7 mph - N/A   Overcast
3:15 PM 26.6 °F 16.8 °F 24.8 °F 93% 29.53 in 2.2 mi NNW 10.4 mph - N/A Snow Light Snow
3:45 PM 26.6 °F 16.2 °F 24.8 °F 93% 29.53 in 2.5 mi NNW 11.5 mph - N/A Snow Light Snow
4:15 PM 26.6 °F 17.5 °F 24.8 °F 93% 29.53 in 2.8 mi NNW 9.2 mph - N/A Snow Light Snow
4:45 PM 26.6 °F 18.2 °F 23.0 °F 86% 29.53 in 2.8 mi NW 8.1 mph - N/A Snow Light Snow
5:15 PM 26.6 °F 17.5 °F 24.8 °F 93% 29.53 in 2.8 mi NW 9.2 mph - N/A Snow Light Snow
5:45 PM 26.6 °F 15.7 °F 23.0 °F 86% 29.53 in 2.8 mi NNW 12.7 mph - N/A Snow Light Snow
6:11 PM 26.6 °F 18.2 °F 23.0 °F 86% 29.59 in 3.7 mi NW 8.1 mph - N/A   Overcast
6:15 PM 26.6 °F 17.5 °F 23.0 °F 86% 29.56 in 3.7 mi NNW 9.2 mph - N/A   Overcast
6:45 PM 26.6 °F 21.2 °F 23.0 °F 86% 29.56 in 3.7 mi WNW 4.6 mph - N/A   Overcast
7:00 PM 26 °F - 23 °F 82% 29.60 in 4 mi WNW 4.5 mph - - Snow Light Snow
7:15 PM 26.6 °F 18.2 °F 23.0 °F 86% 29.56 in 3.7 mi NW 8.1 mph - N/A   Overcast
7:45 PM 26.6 °F 17.5 °F 23.0 °F 86% 29.56 in 3.7 mi NW 9.2 mph - N/A   Overcast
8:15 PM 26.6 °F 18.2 °F 21.2 °F 80% 29.56 in 5.0 mi NW 8.1 mph - N/A   Overcast
8:45 PM 24.8 °F 17.9 °F 23.0 °F 93% 29.53 in 5.0 mi WNW 5.8 mph - N/A   Overcast
9:45 PM 24.8 °F 14.6 °F 23.0 °F 93% 29.56 in 5.0 mi WNW 10.4 mph - N/A   Overcast
10:45 PM 24.8 °F 12.9 °F 21.2 °F 86% 29.53 in 5.0 mi NW 13.8 mph - N/A   Overcast
11:45 PM 24.8 °F 14.0 °F 21.2 °F 86% 29.53 in 6.2 mi NW 11.5 mph - N/A   Overcast